Weather History for Eureka Airport, NV

Change the Weather History Date:

Wednesday, May 22, 2013

  Actual Average Record
Temperature  
Mean Temperature 47 °F -  
Max Temperature 62 °F - - ()
Min Temperature 32 °F - - ()
Degree Days  
Heating Degree Days 18    
Moisture  
Dew Point 16 °F    
Average Humidity 29    
Maximum Humidity 60    
Minimum Humidity 13    
Precipitation  
Precipitation 0.00 in - - ()
Sea Level Pressure  
Sea Level Pressure 29.83 in    
Wind  
Wind Speed 7 mph (NNE)    
Max Wind Speed 21 mph    
Max Gust Speed 26 mph    
Visibility 9 miles    
Events      
T = Trace of Precipitation, MM = Missing Value Source: NWS Daily Summary

Daily Weather History Graph

Daily Weather History Graph

Search for Another Location

Airport:

Trip Planner

Search our weather history database for the weather conditions in past years. The results will help you decide how hot, cold, wet, or windy it might be!

Date:

Astronomy

May. 22, 2013 Rise Set
Actual Time 5:23 AM PDT 7:58 PM PDT
Civil Twilight 4:52 AM PDT 8:29 PM PDT
Nautical Twilight 4:14 AM PDT 9:08 PM PDT
Astronomical Twilight 3:30 AM PDT 9:51 PM PDT
Moon 5:25 PM PDT 3:30 AM PDT
Length of Visible Light 15h 36m
Length of Day
14h 34m
Waxing Gibbous, 92% of the Moon is Illuminated
May 22
Waxing Gibbous
May 24
Full
May 31
Last Quarter
Jun 8
New
Jun 16
First Quarter

Hourly Weather History & Observations

Time (PDT) Temp. Windchill Dew Point Humidity Pressure Visibility Wind Dir Wind Speed Gust Speed Precip Events Conditions
12:10 AM 48.2 °F - 15.8 °F 27% 29.84 in 7.0 mi Calm Calm - N/A   Clear
12:30 AM 46.4 °F 42.9 °F 23.0 °F 40% 29.84 in 8.0 mi SE 6.9 mph - N/A   Clear
12:50 AM 44.6 °F 41.4 °F 19.4 °F 37% 29.85 in 7.0 mi South 5.8 mph - N/A   Clear
1:10 AM 44.6 °F - 17.6 °F 34% 29.84 in 8.0 mi Calm Calm - N/A   Clear
1:30 AM 41.0 °F - 23.0 °F 49% 29.84 in 8.0 mi Calm Calm - N/A   Clear
1:50 AM 41.0 °F - 19.4 °F 42% 29.83 in 10.0 mi Calm Calm - N/A   Scattered Clouds
2:10 AM 39.2 °F 35.0 °F 19.4 °F 45% 29.83 in 8.0 mi SE 5.8 mph - N/A   Unknown
2:30 AM 39.2 °F 37.0 °F 19.4 °F 45% 29.83 in 8.0 mi South 3.5 mph - N/A   Clear
2:50 AM 35.6 °F - 17.6 °F 48% 29.82 in 10.0 mi Calm Calm - N/A   Clear
3:10 AM 35.6 °F - 19.4 °F 52% 29.82 in 10.0 mi Calm Calm - N/A   Clear
3:30 AM 37.4 °F 33.8 °F 17.6 °F 45% 29.81 in 10.0 mi SSW 4.6 mph - N/A   Clear
3:50 AM 35.6 °F - 21.2 °F 56% 29.81 in 10.0 mi Calm Calm - N/A   Clear
4:10 AM 35.6 °F - 17.6 °F 48% 29.80 in 10.0 mi Calm Calm - N/A   Clear
4:30 AM 33.8 °F 29.6 °F 17.6 °F 52% 29.80 in 9.0 mi SSE 4.6 mph - N/A   Clear
4:50 AM 33.8 °F 30.8 °F 17.6 °F 52% 29.79 in 9.0 mi South 3.5 mph - N/A   Clear
5:10 AM 33.8 °F - 19.4 °F 56% 29.79 in 8.0 mi Calm Calm - N/A   Partly Cloudy
5:30 AM 32.0 °F - 19.4 °F 60% 29.79 in 7.0 mi Calm Calm - N/A   Scattered Clouds
5:50 AM 33.8 °F 29.6 °F 19.4 °F 56% 29.79 in 5.0 mi South 4.6 mph - N/A   Partly Cloudy
6:05 AM 35.6 °F 31.7 °F 19.4 °F 52% 29.80 in 5.0 mi South 4.6 mph - N/A   Clear
6:30 AM 39.2 °F 37.0 °F 19.4 °F 45% 29.80 in 5.0 mi South 3.5 mph - N/A   Clear
6:50 AM 44.6 °F - 21.2 °F 39% 29.80 in 6.0 mi Calm Calm - N/A   Clear
7:10 AM 48.2 °F - 19.4 °F 32% 29.80 in 6.0 mi Calm Calm - N/A   Clear
7:30 AM 51.8 °F - 17.6 °F 26% 29.81 in 7.0 mi Calm Calm - N/A   Clear
7:50 AM 53.6 °F - 15.8 °F 22% 29.81 in 7.0 mi Calm Calm - N/A   Clear
8:10 AM 53.6 °F - 14.0 °F 21% 29.81 in 7.0 mi Calm Calm - N/A   Clear
8:30 AM 55.4 °F - 14.0 °F 20% 29.81 in 9.0 mi ENE 4.6 mph - N/A   Clear
8:50 AM 57.2 °F - 15.8 °F 20% 29.81 in 9.0 mi ENE 5.8 mph - N/A   Clear
9:10 AM 57.2 °F - 17.6 °F 21% 29.81 in 7.0 mi NNE 4.6 mph - N/A   Clear
9:30 AM 59.0 °F - 17.6 °F 20% 29.81 in 7.0 mi NNW 4.6 mph - N/A   Clear
9:50 AM 59.0 °F - 17.6 °F 20% 29.81 in 8.0 mi NNW 5.8 mph - N/A   Clear
10:05 AM 60.8 °F - 17.6 °F 19% 29.81 in 8.0 mi NE 8.1 mph - N/A   Clear
10:30 AM 60.8 °F - 19.4 °F 20% 29.82 in 10.0 mi North 15.0 mph 21.9 mph N/A   Clear
10:50 AM 60.8 °F - 19.4 °F 20% 29.82 in 10.0 mi North 16.1 mph 21.9 mph N/A   Clear
11:10 AM 59.0 °F - 17.6 °F 20% 29.83 in 10.0 mi NNE 15.0 mph - N/A   Clear
11:30 AM 60.8 °F - 19.4 °F 20% 29.83 in 10.0 mi North 15.0 mph 24.2 mph N/A   Clear
11:50 AM 59.0 °F - 19.4 °F 22% 29.83 in 10.0 mi NNE 13.8 mph 20.7 mph N/A   Clear
12:10 PM 60.8 °F - 21.2 °F 22% 29.82 in 10.0 mi North 18.4 mph 25.3 mph N/A   Clear
12:30 PM 59.0 °F - 21.2 °F 23% 29.82 in 10.0 mi North 18.4 mph 26.5 mph N/A   Clear
12:50 PM 60.8 °F - 23.0 °F 23% 29.82 in 10.0 mi North 17.3 mph 24.2 mph N/A   Clear
1:10 PM 60.8 °F - 21.2 °F 22% 29.82 in 10.0 mi North 13.8 mph 21.9 mph N/A   Clear
1:30 PM 62.6 °F - 21.2 °F 20% 29.81 in 10.0 mi North 13.8 mph 20.7 mph N/A   Clear
1:50 PM 62.6 °F - 21.2 °F 20% 29.81 in 10.0 mi North 10.4 mph 21.9 mph N/A   Clear
2:10 PM 62.6 °F - 23.0 °F 22% 29.81 in 10.0 mi North 13.8 mph 23.0 mph N/A   Clear
2:30 PM 62.6 °F - 21.2 °F 20% 29.81 in 10.0 mi North 18.4 mph 24.2 mph N/A   Clear
2:50 PM 62.6 °F - 21.2 °F 20% 29.80 in 10.0 mi NNW 16.1 mph 20.7 mph N/A   Clear
3:10 PM 62.6 °F - 21.2 °F 20% 29.80 in 10.0 mi North 15.0 mph 21.9 mph N/A   Clear
3:30 PM 62.6 °F - 19.4 °F 19% 29.80 in 10.0 mi NNW 13.8 mph 19.6 mph N/A   Clear
3:50 PM 60.8 °F - 19.4 °F 20% 29.80 in 10.0 mi NNE 13.8 mph 19.6 mph N/A   Clear
4:10 PM 60.8 °F - 19.4 °F 20% 29.81 in 10.0 mi NNW 13.8 mph 21.9 mph N/A   Clear
4:30 PM 59.0 °F - 17.6 °F 20% 29.81 in 10.0 mi North 18.4 mph 24.2 mph N/A   Clear
4:50 PM 57.2 °F - 15.8 °F 20% 29.82 in 10.0 mi North 20.7 mph 25.3 mph N/A   Clear
5:10 PM 57.2 °F - 14.0 °F 18% 29.82 in 10.0 mi North 20.7 mph 25.3 mph N/A   Clear
5:30 PM 55.4 °F - 12.2 °F 18% 29.82 in 10.0 mi North 15.0 mph 23.0 mph N/A   Clear
5:50 PM 55.4 °F - 12.2 °F 18% 29.83 in 10.0 mi NNE 17.3 mph - N/A   Clear
6:05 PM 53.6 °F - 12.2 °F 19% 29.84 in 10.0 mi NNE 12.7 mph - N/A   Scattered Clouds
6:30 PM 53.6 °F - 10.4 °F 18% 29.83 in 10.0 mi North 13.8 mph - N/A   Partly Cloudy
6:50 PM 51.8 °F - 8.6 °F 18% 29.83 in 10.0 mi North 15.0 mph - N/A   Partly Cloudy
7:05 PM 51.8 °F - 5.0 °F 15% 29.84 in 10.0 mi North 12.7 mph 19.6 mph N/A   Scattered Clouds
7:30 PM 50.0 °F - 8.6 °F 19% 29.86 in 10.0 mi North 12.7 mph - N/A   Overcast
7:50 PM 48.2 °F - 5.0 °F 17% 29.86 in 10.0 mi North 13.8 mph - N/A   Overcast
8:10 PM 48.2 °F - 5.0 °F 17% 29.86 in 10.0 mi North 12.7 mph - N/A   Overcast
8:30 PM 48.2 °F - -0.4 °F 13% 29.87 in 10.0 mi North 11.5 mph - N/A   Overcast
8:50 PM 48.2 °F - 1.4 °F 15% 29.87 in 10.0 mi North 10.4 mph - N/A   Overcast
9:10 PM 46.4 °F 42.4 °F 3.2 °F 17% 29.87 in 10.0 mi North 8.1 mph - N/A   Overcast
9:30 PM 48.2 °F - 1.4 °F 15% 29.87 in 10.0 mi NNE 16.1 mph 23.0 mph N/A   Overcast
9:50 PM 48.2 °F - 10.4 °F 22% 29.88 in 10.0 mi NNE 16.1 mph - N/A   Overcast
10:10 PM 48.2 °F - 14.0 °F 25% 29.88 in 10.0 mi NE 15.0 mph 18.4 mph N/A   Overcast
10:30 PM 48.2 °F - 15.8 °F 27% 29.88 in 10.0 mi ENE 13.8 mph - N/A   Overcast
10:50 PM 46.4 °F 40.4 °F 17.6 °F 32% 29.87 in 10.0 mi ENE 13.8 mph 24.2 mph N/A   Overcast
11:10 PM 46.4 °F 40.7 °F 17.6 °F 32% 29.87 in 10.0 mi NE 12.7 mph - N/A   Overcast
11:30 PM 46.4 °F 42.9 °F 19.4 °F 34% 29.87 in 10.0 mi East 6.9 mph - N/A   Overcast
11:50 PM 44.6 °F 43.1 °F 21.2 °F 39% 29.87 in 10.0 mi East 3.5 mph - N/A   Overcast